User: anonymous   Login
Location: Chakepay
(13.3931°S, 72.1925°W)
Time: 11:05:57
(UTC+00:00)
Language:

Nadezhda 4 Rocket - Orbit

View from above orbital plane
View from above orbital plane
View from above satellite
View from above satellite

Ground track
Ground track

The orbit data is extracted from the following two-line orbital elements,

1 23180U 94041B   20029.20562675  .00000040  00000-0  24177-4 0  9997
2 23180  82.9475 299.6198 0030217  64.9987  88.7839 13.77978049284564
Epoch (UTC): 29 January 2020 04:56:06
Eccentricity: 0.0030217
inclination: 82.9475°
perigee height: 949 km
apogee height: 993 km
right ascension of ascending node: 299.6198°
argument of perigee: 64.9987°
revolutions per day: 13.77978049
mean anomaly at epoch: 88.7839°
orbit number at epoch: 28456

The dashed part of the orbit path shows where the satellite is in the earth's shadow,  

DLR